Погода Озерная

Погода Озерная : погода сейчас, прогноз погоды и архив. Всё, что Вы хотите узнать о погоде Озерная!

Хотите узнать прогноз погоды Озерная? Тогда Вам сюда: Погода Озерная

Поиск расширенной информации на нашем сайте:

Другие новости

Новости СМИ2

Главная страница сайта

Новости сайта

03.07.2017

Напоминаем, что на нашем специализированном сайте Метеоцентр.Азия вы можете получить высокодетализированные автоматические прогнозы погоды по пунктам России, СНГ и мира в авиационном формате (включающие направление и скорость ветра, видимость, явления погоды, количество и форму облачности, нижнюю и верхнюю границу облачности).


Погода Озерная - сегодня

Время (UTC), дата Ветер
(°,м/с) 
Видим.   Явления Облачность Т
(°С)
Тd
(°С)
f(%) Тe
(°С)
Pmin
(гПа)
dP
(гПа)
Po
(мм)
O2
(г/м3)
Тmin Tmax R s Состояние
почвы
09 15.11.18 040 (СВ) 4{11}  10 км  слаб. ливневой дождь  10/10 300 м кучево-дожд. 
[Cb cap]
+1.7 -0.3 87 1007.3  1.1  753  301    +5.1     
15 15.11.18 010 (С) 10 км    9/9 600 м кучево-дожд. 
[Cb calv]
+1.9 -2.4 73 1007  -0.5  753  301           
18 15.11.18 020 (С) 10 км    9/9 600 м 
[Sc]
+1.2 -3.7 70 +2  1007.6  0.6  753  303           
06 16.11.18 010 (С) 4{11}  20000 м    3/0 верхняя 
[Ci fib]
+1.2 -3.4 71 -1  1009.6  1.4  755  303           
12 16.11.18 080 (В) 20000 м    9/9 600 м 
[Sc]
+0.2 -3.7 75 -1  1011.9  0.9  756  305           
15 16.11.18 070 (В) 20000 м    9/9 600 м 
[Sc]
-0 -3.4 78 +1  1012.4  0.5  757  305           
18 16.11.18 080 (В) 20000 м    9/9 600 м 
[Sc]
-0.4 -3 83 -2  1012.8  0.4  757  306           
03 17.11.18 090 (В) 20000 м    9/3 1000 м средняя, верхняя 
[Sc|Ac As|Ci fib]
+4 -2.2 64 +4  1011.5  -1.9  756  300           
09 17.11.18 140 (ЮВ) 6-10{13}  10 км  слаб. ливневой дождь  10/10 300 м кучево-дожд. 
[Cb cap]
+4.8 +2.3 84 +2  1010  -0.9  755  299    +4.9  0.4     
21 17.11.18 260 (З) 3{17}  2000 м  слаб. ливневой снег  10/10 300 м кучево-дожд. 
[Cb cap]
+0.6 +0.2 97 -1  1002.8  2.3  749  301  +0.5    14  равномерный
мокрый или
старый снег
100% 
09 18.11.18 200 (Ю) 8-11{17}  10 км    9/9 600 м кучево-дожд. 
[Cb calv]
+1.2 -1.7 81 -3  1009.4  1.5  754  303    +3.1     
15 18.11.18 220 (ЮЗ) 7-11{14}  н/о    н/о 
+1.9 -3.8 66 -2  1011.5  0.8  756  303           
21 18.11.18 220 (ЮЗ) 1{11}  20000 м  {ливн. осадки}  9/9 600 м кучево-дожд. 
[Cb calv]
+0.5 -1.6 86 +1  1012.5  0.6  757  305  -0.8    0.7  равномерный
мокрый или
старый снег
100% 
03 19.11.18 270 (З) 20000 м  {ливн. осадки}  9/9 600 м кучево-дожд. 
[Cb calv]
+2.1 -1.7 76 1012.8  0.1  757  303           
15 19.11.18 220 (ЮЗ) 20000 м  {ливн. осадки}  5/5 600 м 
[Sc]
+2.3 -1.3 77 1015.2  0.1  759  303           
18 19.11.18 070 (В) 20000 м  {ливн. осадки}  9/9 600 м 
[Sc]
-0.2 -1.9 88 -1  1014.8  -0.4  758  306           
21 19.11.18 210 (ЮЗ) 8-11{11}  10 км    10/10 300 м 
[St]
+1.4 -0 90 -3  1015.2  0.4  759  304  -1.6    равномерный
мокрый или
старый снег
100% 
03 20.11.18 190 (Ю) 4{10}  20000 м    9/9 600 м 
[Sc]
+3.3 -1.8 69 +1  1015  -0.7  759  302           
06 20.11.18 100 (В) 20000 м  {ливн. осадки}  10/10 600 м кучево-дожд. 
[Cb calv]
+1.5 -1.3 82 1014.7  -0.3  758  304           
12 20.11.18 070 (В) 10 км  слаб. ливневой снег  10/10 300 м кучево-дожд. 
[Cb cap]
+1.8 -1.2 80 -1  1012  -1.6  756  303           
15 20.11.18 060 (СВ) 10 км  слаб. ливневой снег  10/10 300 м кучево-дожд. 
[Cb cap]
+1.6 -0.2 88 -1  1009.2  -2.8  754  302           
21 20.11.18 160 (Ю) 8-12{12}  20000 м  {ливн. осадки}  9/9 600 м кучево-дожд. 
[Cb calv]
+4.4 +1.2 80 +1  1006.2  -0.7  752  298  +1.2    0.0     
03 21.11.18 070 (В) 20000 м    9/9 600 м 
[Sc]
+5.9 +0.6 69 +6  1003.4  -1.8  750  296           
06 21.11.18 240 (ЮЗ) 10 км  в посл. час ливневой дождь  10/10 600 м кучево-дожд. 
[Cb calv]
+3.7 +1.1 83 +5  1003.5  0.1  750  298           
12 21.11.18 тихо ()   4000 м  слаб. ливневой снег  10/10 300 м кучево-дожд. 
[Cb cap]
+0.5 -0.3 94 +1  1003.3  -0.4  750  302           
Время (UTC), дата Ветер
(°,м/с) 
Видим.   Явления Облачность Т
(°С)
Тd
(°С)
f(%) Тe
(°С)
Pmin
(гПа)
dP
(гПа)
Po
(мм)
O2
(г/м3)
Тmin Tmax R s Состояние
почвы

Для получения пояснительной информации подведите курсор к названию столбца.

ПОГОДА Озерная - архив

Всё, что Вы хотите узнать о погоде Озерная - удобно и подробно!

Выберите нужную дату (начиная с 1 января 2015* года) и нажмите кнопку "Найти".
Будут отображены архивные сводки погоды по пункту Озерная, начиная с указанной даты.


Отображать данные в формате CSV (для использования в таблицах Excel)


Внимание! Наш архив погоды предназначен исключительно для личного некоммерческого использования в познавательных целях. Если Вам необходимы официальные справки о состоянии погоды (для производственных, юридических, коммерческих и т.п. целей), обращайтесь в органы Росгидромета.

*Примечание: данная дата относится к архиву по метеостанциям СССР (Россия, СНГ, Балтия).
Архив по метеостанциям Зарубежной Европы и Азии (кроме Китая) хранится 10 дней, по другим регионам земного шара (Китай, Африка, Америка, Австралия, Океания) - 1 день.

Озерная - район местоположения метеостанции


Название, широта, долгота, высота метеостанции:
Озерная 51.5°ш. 156.5°д. 28 м над ур. моря [Российская Федерация]

Дополнительная информация

В oтличие oт бoльшинства пoгoдных сайтoв мы публикуем пoдрoбную метеoинфoрмацию в детальнoм прoфессиoнальнoм фoрмате.

Характеристики температуры и влажнoсти вoздуха измеряются на высoте 2 м в тени вдали oт зданий и деревьев.
Скoрoсть ветра измеряется на высoте 10 м (на урoвне рoста челoвека скoрoсть ветра ниже в 1.5-2 раза). Если метеoстанция нахoдится в гoрoде или в лесу, тo скoрoсть ветра занижена на 2-4 м/с пo сравнению с oткрытым местoм. Скoрoсть ветра над акватoриями крупных рек и oзёр, а также на вершинах хoлмoв на 2-5 м/с выше, чем в oбычных услoвиях.
Атмoсфернoе давление в разных тoчках местнoсти мoжет значительнo oтличаться oт давления на метеoстанции, в зависимoсти oт услoвий рельефа (при пoдъёме на 10 м давление пoнижается примернo на 1 мм рт.ст.).